Terug naar catalogus

SL-14 DEB

ActiefPO
NORAD 26030·DEBRIS·🇷🇺 Russia

Gelanceerd Sep 28, 1991 vanaf Plesetsk Cosmodrome

Loading…

Volgende Passages (komende 24 uur)

TLE

VerouderendSource: Space-Track

Epoch: Sep 8, 2026, 13:12 UTC

1 26030U 91068AU  26251.55005970  .00000042  00000-0  15827-3 0  9994
2 26030  82.6810 344.6156 0085640  91.0372 283.7124 12.67413404603178

Volg SL-14 DEB in realtime met AllMySat

Download on the App Store